Location: Castrojimeno
(41.3966°N, 3.8473°W)
Time: 20:56:23
(UTC+00:00)

Cosmos 2221 - Pass Details

Date: 15 May 2026
Orbit: 569 x 586 km, 82.5° (Epoch: 7 June)

Event Time Altitude Azimuth Distance (km) Brightness Sun altitude
Exits shadow 23:39:33 38° 346° (NNW) 897 3.8 -29.1°
Drops below altitude 10° 23:42:16 10° 2° (N) 1,901 6.0 -29.2°
Sets 23:44:30 0° 5° (N) 2,808 7.1 -29.2°
